STARLINK-32853 (62818 NORAD) Tracking and Keplerian Element Data

This shows tracking and keplerian element data for the satellite.

Feedback or suggestion? Click here.




ElementValue
Catalog62818
NameSTARLINK-32853
Epoch Orbit292
Epoch Day35.25001157
Epoch Year2025
RAAN11.4835
Inclination53.1472
Eccentricity0.0001282
Argument of Perigee94.2313
Mean Anonmoly91.0611
Mean Motion15.85914841
Decay Rate-0.01028278
L11 62818U 25018N 25035.25001157 -.01028278 00000+0 -46067-2 0 9991
L22 62818 53.1472 11.4835 0001282 94.2313 91.0611 15.85914841 2923



Live tracking and technical data element details for STARLINK-32853 (NORAD 62818). STARLINK-32853 can be tracked NOW for your location showing map with azimuth and elevation plus other details from your city location.







IsCatalogInMostPopularTable: catalog: 62818, numindb: 223
Update: records affected: 1



GetName: 62818 STARLINK-32853

Hit Count: updated at: Sat, 06 Dec 2025 12:11:55 GMT